TimeCDT,TemperatureF,Dew PointF,Humidity,Sea Level PressureIn,VisibilityMPH,Wind Direction,Wind SpeedMPH,Gust SpeedMPH,PrecipitationIn,Events,Conditions,WindDirDegrees,DateUTC
12:54 AM,59.0,48.0,67,30.00,10.0,South,4.6,-,N/A,,Clear,180,2013-05-08 05:54:00
1:54 AM,54.0,48.0,80,30.00,10.0,South,4.6,-,N/A,,Clear,170,2013-05-08 06:54:00
2:54 AM,53.1,48.0,83,30.01,10.0,SSE,5.8,-,N/A,,Clear,160,2013-05-08 07:54:00
3:54 AM,54.0,46.0,75,30.00,10.0,SSE,5.8,-,N/A,,Clear,160,2013-05-08 08:54:00
4:54 AM,54.0,46.0,75,30.00,10.0,South,4.6,-,N/A,,Clear,170,2013-05-08 09:54:00
5:54 AM,50.0,45.0,83,30.01,10.0,South,5.8,-,N/A,,Clear,170,2013-05-08 10:54:00
6:54 AM,51.1,46.0,83,30.03,10.0,South,5.8,-,N/A,,Partly Cloudy,170,2013-05-08 11:54:00
7:54 AM,57.9,48.9,72,30.03,10.0,South,4.6,-,N/A,,Clear,180,2013-05-08 12:54:00
8:54 AM,64.0,50.0,60,30.03,10.0,SSE,6.9,-,N/A,,Clear,160,2013-05-08 13:54:00
9:54 AM,71.1,48.0,44,30.01,10.0,SSE,8.1,-,N/A,,Clear,160,2013-05-08 14:54:00
10:54 AM,73.0,46.9,39,30.01,10.0,SSE,5.8,-,N/A,,Clear,150,2013-05-08 15:54:00
11:54 AM,75.0,46.9,37,30.01,10.0,SSW,9.2,-,N/A,,Clear,200,2013-05-08 16:54:00
12:54 PM,75.9,46.0,35,29.99,10.0,South,6.9,19.6,N/A,,Partly Cloudy,170,2013-05-08 17:54:00
1:54 PM,75.9,46.0,35,29.99,10.0,SSW,8.1,26.5,N/A,,Partly Cloudy,200,2013-05-08 18:54:00
2:54 PM,75.0,46.9,37,29.98,10.0,ESE,10.4,-,N/A,,Scattered Clouds,120,2013-05-08 19:54:00
3:54 PM,75.9,46.0,35,29.95,10.0,Variable,6.9,-,N/A,,Overcast,0,2013-05-08 20:54:00
4:54 PM,75.0,48.9,40,29.95,10.0,SSW,15.0,-,N/A,,Overcast,210,2013-05-08 21:54:00
5:54 PM,71.1,48.9,45,29.95,10.0,ESE,6.9,-,N/A,,Mostly Cloudy,110,2013-05-08 22:54:00
6:54 PM,62.1,55.0,78,29.99,6.0,WSW,13.8,-,0.01,Rain,Rain,240,2013-05-08 23:54:00
7:54 PM,62.1,55.0,78,30.01,10.0,WNW,6.9,-,0.04,,Overcast,290,2013-05-09 00:54:00
8:54 PM,60.1,55.9,86,30.01,7.0,Calm,Calm,-,0.01,Rain,Rain,0,2013-05-09 01:54:00
9:54 PM,60.1,55.9,86,30.02,10.0,Calm,Calm,-,0.00,,Mostly Cloudy,0,2013-05-09 02:54:00
10:54 PM,61.0,55.0,81,30.01,10.0,Calm,Calm,-,N/A,,Overcast,0,2013-05-09 03:54:00
11:54 PM,57.9,55.9,93,30.00,8.0,ENE,5.8,-,0.00,Rain,Light Rain,60,2013-05-09 04:54:00